Location: Boiro
(42.6475°N, 8.8834°W)
Time: 19:06:34
(UTC+01:00)

A-11 Canister half - Pass Details

Date: 09 December 2021
Orbit: 1516 x 1684 km, 47.2° (Epoch: 26 January)

Event Time Altitude Azimuth Distance (km) Brightness Sun altitude
Rises 10:24:52 0° 279° (W) 4,795 11.1 12.1°
Reaches altitude 10° 10:27:58 10° 282° (WNW) 3,832 10.7 12.5°
Maximum altitude 10:37:47 69° 6° (N) 1,747 9.4 13.7°
Drops below altitude 10° 10:47:54 10° 89° (E) 3,938 11.8 14.8°
Sets 10:51:08 0° 92° (E) 4,933 12.3 15.2°
